Weather History for Ellicott, CO

Change the Weather History Date:

Tuesday, November 1, 2011

  Actual Average (KCOS) Record (KCOS)
Temperature  
Mean Temperature 46 °F 44 °F  
Max Temperature 59 °F 58 °F 72 °F (2008)
Min Temperature 32 °F 31 °F 2 °F (1951)
Degree Days  
Heating Degree Days 18 21  
Month to date heating degree days 21  
Since 1 July heating degree days 695  
Cooling Degree Days 0 0  
Month to date cooling degree days 0  
Year to date cooling degree days 455  
Moisture  
Dew Point 26 °F    
Average Humidity 48    
Maximum Humidity 79    
Minimum Humidity 23    
Precipitation  
Precipitation 0.00 in 0.02 in 0.60 in (1957)
Month to date precipitation 0.02  
Year to date precipitation 15.82  
Snow  
Snow 0.00 in 0.10 in 5.10 in (1951)
Month to date snowfall 0.1  
Since 1 July snowfall 3.2  
Since 1 September snowfall 3.2  
Snow Depth -    
Sea Level Pressure  
Sea Level Pressure 29.91 in    
Wind  
Wind Speed 10 mph (East)    
Max Wind Speed 28 mph    
Max Gust Speed 41 mph    
T = Trace of Precipitation, MM = Missing Value Source: NWS Daily Summary

Daily Weather History Graph

Daily Weather History Graph

Search for Another Location

Airport:

Trip Planner

Search our weather history database for the weather conditions in past years. The results will help you decide how hot, cold, wet, or windy it might be!

Date:

Astronomy

Nov. 01, 2011 Rise Set
Actual Time 7:23 AM MDT 5:57 PM MDT
Civil Twilight 6:56 AM MDT 6:24 PM MDT
Nautical Twilight 6:24 AM MDT 6:56 PM MDT
Astronomical Twilight 5:53 AM MDT 7:27 PM MDT
Moon 1:11 PM MDT (11/1) 11:42 PM MDT (11/1)
Length of Visible Light 11h 28m
Length of Day
10h 33m
Waxing Crescent, 40% of the Moon is Illuminated
Nov 1
Waxing Crescent
Nov 2
First Quarter
Nov 10
Full
Nov 18
Last Quarter
Nov 24
New

Hourly Weather History & Observations

Time (MDT) Temp. Windchill Dew Point Humidity Pressure Visibility Wind Dir Wind Speed Gust Speed Precip Events Conditions
12:56 AM 37.9 °F 34.4 °F 25.0 °F 60% 29.94 in - NNE 4.6 mph - N/A   Unknown
1:56 AM 41.0 °F 38.0 °F 25.0 °F 53% 29.92 in - NNE 4.6 mph - N/A   Unknown
2:56 AM 41.0 °F 36.4 °F 24.1 °F 51% 29.91 in - NW 6.9 mph - N/A   Unknown
3:56 AM 35.1 °F 32.2 °F 24.1 °F 64% 29.94 in - NE 3.5 mph - N/A   Unknown
4:56 AM 37.9 °F - 23.0 °F 55% 29.92 in - Calm Calm - N/A   Unknown
5:56 AM 39.0 °F 32.8 °F 24.1 °F 55% 29.94 in - SE 9.2 mph - N/A   Unknown
6:56 AM 35.1 °F 30.1 °F 24.1 °F 64% 29.99 in - South 5.8 mph - N/A   Unknown
7:56 AM 36.0 °F 29.6 °F 24.1 °F 62% 30.00 in - SSE 8.1 mph - N/A   Unknown
8:56 AM 51.1 °F - 25.0 °F 36% 29.94 in - South 8.1 mph - N/A   Unknown
9:56 AM 57.9 °F - 19.9 °F 23% 29.91 in - SSW 10.4 mph - N/A   Unknown
10:56 AM 57.0 °F - 25.0 °F 29% 29.92 in - East 12.7 mph 18.4 mph N/A   Unknown
11:11 AM 55.4 °F - 28.4 °F 36% 30.00 in - East 12.7 mph - N/A   Unknown
11:56 AM 55.9 °F - 27.0 °F 33% 29.90 in - ESE 13.8 mph - N/A   Unknown
12:56 PM 55.0 °F - 26.1 °F 33% 29.89 in - SE 16.1 mph 19.6 mph N/A   Unknown
1:56 PM 57.0 °F - 26.1 °F 30% 29.83 in - SE 15.0 mph 20.7 mph N/A   Unknown
2:56 PM 57.9 °F - 26.1 °F 30% 29.80 in - SSE 17.3 mph - N/A   Unknown
3:56 PM 59.0 °F - 26.1 °F 28% 29.81 in - SE 19.6 mph 26.5 mph N/A   Unknown
4:56 PM 57.0 °F - 25.0 °F 29% 29.79 in - SE 17.3 mph - N/A   Unknown
5:56 PM 52.0 °F - 27.0 °F 38% 29.81 in - North - - N/A   Unknown
6:56 PM 48.0 °F - 28.0 °F 46% 29.85 in - ESE 15.0 mph - N/A   Unknown
7:48 PM 46.4 °F 40.7 °F 28.4 °F 50% 29.93 in - NE 12.7 mph 25.3 mph N/A   Unknown
7:56 PM 46.9 °F - 28.9 °F 50% 29.93 in - NNE 16.1 mph - N/A   Unknown
8:56 PM 39.9 °F 32.1 °F 28.9 °F 65% 29.92 in - NNE 13.8 mph 21.9 mph N/A   Unknown
9:56 PM 41.0 °F 32.2 °F 28.9 °F 62% 29.90 in - NNE 18.4 mph - N/A   Overcast
10:56 PM 34.0 °F 20.8 °F 28.0 °F 79% 29.97 in - NNE 27.6 mph 38.0 mph N/A   Unknown
11:56 PM 32.0 °F 18.1 °F 26.1 °F 79% 29.98 in - NNE 27.6 mph 41.4 mph 0.00 in   Unknown